When you browse on this site, cookies collect data to enhance your experience and personalize the content and advertising you see.
Visit our Privacy Policy to learn more. By continuing to use the site, you agree to this use of cookies and data.
  • In United Kingdom
  • List of Countries
  • For 7 days
  • Water Temperature
  • Satellite Maps
  • Weather Map
  • Weather Widgets
  • user-avatar
    Login

    Hourly Weather Krutcy

    Today, 19 February, Tuesday

    Time Temperature Precipitation Wind Pressure Humidity
    00:00 -4°C° 0 mm 4 mps 756 mmHg 71%
    01:00 -3°C° 0 mm 4 mps 756 mmHg 71%
    02:00 -4°C° 0 mm 4 mps 755 mmHg 78%
    03:00 -3°C° 0 mm 4 mps 754 mmHg 81%
    04:00 -4°C° 0 mm 5 mps 753 mmHg 83%
    05:00 -4°C° 0 mm 5 mps 753 mmHg 86%
    06:00 -2°C° 0 mm 5 mps 752 mmHg 87%
    07:00 -2°C° 0 mm 5 mps 752 mmHg 88%
    08:00 -2°C° 0 mm 5 mps 752 mmHg 88%
    09:00 -2°C° 0 mm 5 mps 751 mmHg 87%
    10:00 -1°C° 0 mm 5 mps 751 mmHg 85%
    11:00 0°C° 0 mm 5 mps 750 mmHg 84%
    12:00 0°C° 0 mm 5 mps 750 mmHg 84%
    13:00 +1°C° 0 mm 5 mps 749 mmHg 83%
    14:00 +1°C° 0 mm 5 mps 748 mmHg 83%
    15:00 +1°C° 0 mm 5 mps 747 mmHg 85%
    16:00 +1°C° 0 mm 5 mps 747 mmHg 86%
    17:00 0°C° 0 mm 5 mps 746 mmHg 88%
    18:00 +1°C° 0 mm 5 mps 745 mmHg 89%
    19:00 +1°C° 0 mm 5 mps 744 mmHg 89%
    20:00 +1°C° 0 mm 5 mps 744 mmHg 90%
    21:00 +1°C° 0 mm 5 mps 743 mmHg 90%
    22:00 0°C° 0 mm 5 mps 743 mmHg 90%
    23:00 0°C° 0 mm 4 mps 742 mmHg 90%

    Tomorrow, 20 February, Wednesday

    Time Temperature Precipitation Wind Pressure Humidity
    00:00 0°C° 0.4 mm 4 mps 742 mmHg 90%
    01:00 0°C° 0.4 mm 4 mps 742 mmHg 91%
    02:00 +1°C° 0.4 mm 4 mps 742 mmHg 91%
    03:00 0°C° 0 mm 4 mps 741 mmHg 92%
    04:00 0°C° 0 mm 4 mps 741 mmHg 92%
    05:00 0°C° 0 mm 4 mps 741 mmHg 92%
    06:00 0°C° 0.1 mm 5 mps 741 mmHg 91%
    07:00 0°C° 0.1 mm 5 mps 741 mmHg 90%
    08:00 0°C° 0.1 mm 5 mps 741 mmHg 90%
    09:00 +1°C° 0 mm 5 mps 740 mmHg 88%
    10:00 +1°C° 0 mm 5 mps 740 mmHg 87%
    11:00 +1°C° 0 mm 5 mps 740 mmHg 86%
    12:00 +1°C° 0.3 mm 5 mps 740 mmHg 86%
    13:00 +1°C° 0.3 mm 5 mps 739 mmHg 86%
    14:00 +1°C° 0.3 mm 5 mps 739 mmHg 85%
    15:00 -1°C° 0.2 mm 6 mps 739 mmHg 81%
    16:00 -1°C° 0.2 mm 6 mps 739 mmHg 77%
    17:00 -2°C° 0.2 mm 6 mps 739 mmHg 72%
    18:00 -3°C° 0.1 mm 6 mps 740 mmHg 75%
    19:00 -4°C° 0.1 mm 6 mps 741 mmHg 77%
    20:00 -5°C° 0.1 mm 5 mps 742 mmHg 80%
    21:00 -5°C° 0.2 mm 6 mps 742 mmHg 80%
    22:00 -5°C° 0.2 mm 6 mps 742 mmHg 80%
    23:00 -5°C° 0.2 mm 6 mps 743 mmHg 80%

    Day after tomorrow, 21 February, Thursday

    Time Temperature Precipitation Wind Pressure Humidity
    00:00 -5°C° 0.1 mm 6 mps 743 mmHg 78%
    01:00 -6°C° 0.1 mm 7 mps 744 mmHg 77%
    02:00 -7°C° 0.1 mm 7 mps 744 mmHg 75%
    03:00 -7°C° 0.1 mm 7 mps 745 mmHg 74%
    04:00 -8°C° 0.1 mm 7 mps 745 mmHg 72%
    05:00 -8°C° 0.1 mm 7 mps 746 mmHg 71%
    06:00 -8°C° 0.1 mm 7 mps 747 mmHg 71%
    07:00 -8°C° 0.1 mm 7 mps 748 mmHg 72%
    08:00 -8°C° 0.1 mm 7 mps 749 mmHg 72%
    09:00 -8°C° 0 mm 6 mps 749 mmHg 70%
    10:00 -8°C° 0 mm 6 mps 750 mmHg 68%
    11:00 -8°C° 0 mm 6 mps 751 mmHg 66%
    12:00 -8°C° 0.1 mm 6 mps 752 mmHg 65%
    13:00 -8°C° 0.1 mm 6 mps 752 mmHg 64%
    14:00 -7°C° 0.1 mm 5 mps 753 mmHg 63%
    15:00 -7°C° 0 mm 5 mps 754 mmHg 64%
    16:00 -8°C° 0 mm 5 mps 754 mmHg 64%
    17:00 -8°C° 0 mm 4 mps 755 mmHg 65%
    18:00 -9°C° 0 mm 4 mps 756 mmHg 66%
    19:00 -9°C° 0 mm 4 mps 757 mmHg 67%
    20:00 -10°C° 0 mm 4 mps 758 mmHg 68%
    21:00 -10°C° 0 mm 4 mps 758 mmHg 68%
    22:00 -10°C° 0 mm 4 mps 759 mmHg 68%
    23:00 -10°C° 0 mm 4 mps 760 mmHg 69%

    22 February, Friday

    Time Temperature Precipitation Wind Pressure Humidity
    00:00 -11°C° 0 mm 4 mps 760 mmHg 71%
    01:00 -10°C° 0 mm 3 mps 761 mmHg 73%
    02:00 -10°C° 0 mm 3 mps 762 mmHg 75%
    03:00 -10°C° 0 mm 3 mps 762 mmHg 75%
    04:00 -10°C° 0 mm 3 mps 763 mmHg 75%
    05:00 -10°C° 0 mm 3 mps 763 mmHg 75%
    06:00 -12°C° 0 mm 3 mps 764 mmHg 74%
    07:00 -12°C° 0 mm 3 mps 764 mmHg 74%
    08:00 -12°C° 0 mm 3 mps 765 mmHg 73%
    09:00 -11°C° 0 mm 4 mps 765 mmHg 67%
    10:00 -11°C° 0 mm 5 mps 765 mmHg 60%
    11:00 -10°C° 0 mm 5 mps 765 mmHg 54%
    12:00 -8°C° 0 mm 5 mps 765 mmHg 55%
    13:00 -8°C° 0 mm 5 mps 765 mmHg 56%
    14:00 -7°C° 0 mm 5 mps 766 mmHg 58%
    15:00 -8°C° 0 mm 5 mps 766 mmHg 61%
    16:00 -9°C° 0 mm 4 mps 766 mmHg 65%
    17:00 -9°C° 0 mm 4 mps 766 mmHg 69%
    18:00 -10°C° 0 mm 4 mps 767 mmHg 72%
    19:00 -10°C° 0 mm 4 mps 767 mmHg 74%
    20:00 -11°C° 0 mm 4 mps 768 mmHg 76%
    21:00 -11°C° 0 mm 4 mps 768 mmHg 77%
    22:00 -10°C° 0 mm 3 mps 768 mmHg 79%
    23:00 -10°C° 0 mm 3 mps 769 mmHg 80%

    23 February, Saturday

    Time Temperature Precipitation Wind Pressure Humidity
    00:00 -12°C° 0 mm 3 mps 769 mmHg 81%
    01:00 -10°C° 0 mm 2 mps 769 mmHg 83%
    02:00 -10°C° 0 mm 2 mps 769 mmHg 84%
    03:00 -10°C° 0 mm 2 mps 769 mmHg 86%
    04:00 -10°C° 0 mm 2 mps 769 mmHg 87%
    05:00 -12°C° 0 mm 2 mps 769 mmHg 88%
    06:00 -10°C° 0 mm 2 mps 769 mmHg 87%
    07:00 -10°C° 0 mm 2 mps 769 mmHg 86%
    08:00 -9°C° 0 mm 1 mps 769 mmHg 85%
    09:00 -8°C° 0 mm 1 mps 769 mmHg 79%
    10:00 -7°C° 0 mm 1 mps 769 mmHg 73%
    11:00 -6°C° 0 mm 1 mps 769 mmHg 67%
    12:00 -6°C° 0 mm 1 mps 769 mmHg 63%
    13:00 -4°C° 0 mm 1 mps 768 mmHg 58%
    14:00 -3°C° 0 mm 1 mps 768 mmHg 54%
    15:00 -4°C° 0 mm 1 mps 768 mmHg 58%
    16:00 -4°C° 0 mm 1 mps 768 mmHg 62%
    17:00 -4°C° 0 mm 1 mps 768 mmHg 66%
    18:00 -4°C° 0 mm 1 mps 768 mmHg 68%
    19:00 -4°C° 0 mm 1 mps 768 mmHg 70%
    20:00 -4°C° 0 mm 1 mps 768 mmHg 71%
    21:00 -4°C° 0 mm 1 mps 768 mmHg 73%
    22:00 -4°C° 0 mm 1 mps 768 mmHg 74%
    23:00 -4°C° 0 mm 1 mps 768 mmHg 76%

    24 February, Sunday

    Time Temperature Precipitation Wind Pressure Humidity
    00:00 -4°C° 0 mm 1 mps 769 mmHg 78%
    01:00 -4°C° 0 mm 1 mps 769 mmHg 81%
    02:00 -4°C° 0 mm 1 mps 769 mmHg 83%
    03:00 -4°C° 0 mm 1 mps 769 mmHg 86%
    04:00 -4°C° 0 mm 1 mps 769 mmHg 89%
    05:00 -4°C° 0 mm 1 mps 769 mmHg 92%
    06:00 -4°C° 0 mm 1 mps 769 mmHg 93%
    07:00 -3°C° 0 mm 1 mps 769 mmHg 94%
    08:00 -3°C° 0 mm 1 mps 769 mmHg 95%
    09:00 -2°C° 0 mm 1 mps 769 mmHg 92%
    10:00 -1°C° 0 mm 1 mps 769 mmHg 90%
    11:00 0°C° 0 mm 1 mps 769 mmHg 87%
    12:00 -1°C° 0 mm 2 mps 768 mmHg 86%
    13:00 -1°C° 0 mm 2 mps 768 mmHg 86%
    14:00 -1°C° 0 mm 2 mps 768 mmHg 85%
    15:00 -1°C° 0 mm 2 mps 767 mmHg 87%
    16:00 -1°C° 0 mm 2 mps 767 mmHg 88%
    17:00 -1°C° 0 mm 2 mps 767 mmHg 89%
    18:00 -1°C° 0 mm 3 mps 766 mmHg 90%
    19:00 -1°C° 0 mm 3 mps 766 mmHg 91%
    20:00 -1°C° 0 mm 3 mps 766 mmHg 92%
    21:00 -1°C° 0 mm 3 mps 765 mmHg 93%
    22:00 -1°C° 0 mm 3 mps 765 mmHg 93%
    23:00 -1°C° 0 mm 3 mps 764 mmHg 94%
    Show more